Concordia, KS

8:51 PM CST on November 14, 2019 (GMT -0600)
Blosser Municipal

Weather History for KCNK - September, 2019

Change the Weather History Date:

Saturday, September 28, 2019

  Actual Average Record
Temperature  
Mean Temperature 62 °F 62 °F  
Max Temperature 66 °F 75 °F 105 °F (1953)
Min Temperature 57 °F 51 °F 33 °F (1942)
Degree Days  
Heating Degree Days 3 5  
Month to date heating degree days 3 60  
Since 1 July heating degree days 3 63  
Cooling Degree Days 0 2  
Month to date cooling degree days 340 155  
Year to date cooling degree days 1617 1321  
Growing Degree Days 12 (Base 50)    
Moisture  
Dew Point 55 °F    
Average Humidity 77    
Maximum Humidity 97    
Minimum Humidity 56    
Precipitation  
Precipitation 0.06 in 0.09 in 1.84 in (1986)
Month to date precipitation 2.08 2.73  
Year to date precipitation 30.92 23.83  
Snow  
Snow 0.00 in 0.00 in 0.00 in ()
Month to date snowfall 0.0 0.0  
Year to date snowfall 32.3 13.7  
Since 1 July snowfall 0.0 0.0  
Snow Depth 0.00 in    
Sea Level Pressure  
Sea Level Pressure 29.96 in    
Wind  
Wind Speed 9 mph (ENE)    
Max Wind Speed 24 mph    
Max Gust Speed 32 mph    
Visibility 7 miles    
Events Rain    
T = Trace of Precipitation, MM = Missing Value Source: NWS Daily Summary

Daily Weather History Graph

Daily Weather History Graph

Search for Another Location

Airport or City:

Astronomy

Sep. 28, 2019 Rise Set
Actual Time 7:23 AM CDT 7:18 PM CDT
Civil Twilight 6:56 AM CDT 7:44 PM CDT
Nautical Twilight 6:25 AM CDT 8:16 PM CDT
Astronomical Twilight 5:53 AM CDT 8:47 PM CDT
Moon 7:02 AM CDT (9/28) 7:44 PM CDT (9/28)
Length of Visible Light 12h 48m
Length of Day
11h 54m
Waning Crescent, 0% of the Moon is Illuminated
Sep 28
Waning Crescent
Sep 28
New
Oct 5
First Quarter
Oct 13
Full
Oct 21
Last Quarter

Hourly Weather History & Observations

Time (CDT) Temp. Dew Point Humidity Pressure Visibility Wind Dir Wind Speed Gust Speed Precip Events Conditions
12:55 AM 66.0 °F 50.0 °F 56% 29.86 in 10.0 mi NNE 15.0 mph 26.5 mph N/A   Overcast
1:55 AM 64.0 °F 51.1 °F 63% 29.88 in 10.0 mi NNE 16.1 mph 26.5 mph N/A   Overcast
2:55 AM 63.0 °F 50.0 °F 63% 29.89 in 10.0 mi NE 18.4 mph 28.8 mph N/A   Overcast
3:55 AM 62.1 °F 50.0 °F 65% 29.89 in 10.0 mi NE 13.8 mph 24.2 mph N/A   Overcast
5:55 AM 62.1 °F 50.0 °F 65% 29.91 in 10.0 mi NE 16.1 mph 21.9 mph N/A   Overcast
6:55 AM 60.1 °F 48.9 °F 67% 29.92 in 10.0 mi NE 9.2 mph 20.7 mph N/A   Mostly Cloudy
7:55 AM 59.0 °F 48.9 °F 69% 29.95 in 10.0 mi ENE 9.2 mph - N/A   Mostly Cloudy
8:55 AM 59.0 °F 50.0 °F 72% 29.97 in 10.0 mi NE 10.4 mph - N/A   Overcast
9:12 AM 59.0 °F 50.0 °F 72% 29.99 in 10.0 mi NE 13.8 mph 21.9 mph N/A   Overcast
9:55 AM 59.0 °F 50.0 °F 72% 29.97 in 10.0 mi ENE 13.8 mph 21.9 mph N/A   Mostly Cloudy
10:55 AM 60.1 °F 51.1 °F 72% 29.99 in 10.0 mi NE 12.7 mph - N/A   Overcast
11:55 AM 59.0 °F 52.0 °F 78% 30.01 in 5.0 mi NE 6.9 mph - N/A   Haze
12:14 PM 57.9 °F 53.1 °F 84% 30.04 in 2.5 mi NE 5.8 mph - 0.00 in Rain Light Rain
12:20 PM 57.0 °F 54.0 °F 89% 30.04 in 1.5 mi ENE 4.6 mph - 0.01 in Rain Light Rain
12:31 PM 57.0 °F 54.0 °F 89% 30.02 in 2.0 mi ENE 9.2 mph - 0.02 in Rain Light Rain
12:38 PM 57.0 °F 55.0 °F 93% 30.02 in 6.0 mi ENE 8.1 mph - 0.02 in Rain Light Rain
12:46 PM 57.0 °F 55.0 °F 93% 30.01 in 10.0 mi ENE 8.1 mph - 0.02 in   Overcast
12:55 PM 57.0 °F 55.0 °F 93% 30.00 in 10.0 mi East 8.1 mph - 0.02 in   Overcast
1:17 PM 57.0 °F 54.0 °F 89% 30.01 in 10.0 mi ENE 6.9 mph - N/A   Overcast
1:55 PM 57.9 °F 55.0 °F 90% 29.99 in 10.0 mi East 8.1 mph - N/A   Overcast
2:55 PM 59.0 °F 55.0 °F 87% 29.97 in 10.0 mi ENE 8.1 mph - 0.00 in   Overcast
3:17 PM 57.9 °F 55.9 °F 93% 29.95 in 5.0 mi NE 9.2 mph - 0.02 in Rain Rain
3:24 PM 57.9 °F 55.9 °F 93% 29.95 in 5.0 mi NNE 11.5 mph - 0.03 in Rain Light Rain
3:55 PM 59.0 °F 55.9 °F 90% 29.92 in 10.0 mi East 10.4 mph - 0.04 in   Overcast
4:06 PM 59.0 °F 57.0 °F 93% 29.92 in 9.0 mi East 10.4 mph - N/A   Overcast
4:55 PM 60.1 °F 57.0 °F 90% 29.90 in 10.0 mi East 12.7 mph 19.6 mph N/A   Overcast
5:55 PM 60.1 °F 57.0 °F 90% 29.93 in 10.0 mi East 8.1 mph - N/A   Overcast
6:55 PM 60.1 °F 57.0 °F 90% 29.93 in 10.0 mi East 5.8 mph - N/A   Overcast
7:45 PM 59.0 °F 57.9 °F 96% 29.95 in 4.0 mi East 5.8 mph - N/A   Overcast
7:55 PM 59.0 °F 57.9 °F 96% 29.93 in 4.0 mi East 4.6 mph - N/A   Overcast
8:18 PM 59.0 °F 57.9 °F 96% 29.95 in 2.5 mi ESE 4.6 mph - N/A   Overcast
8:29 PM 59.0 °F 57.9 °F 96% 29.95 in 1.5 mi ESE 4.6 mph - N/A   Overcast
8:40 PM 59.0 °F 57.9 °F 96% 29.95 in 1.2 mi ESE 5.8 mph - N/A   Overcast
8:55 PM 59.0 °F 57.9 °F 96% 29.94 in 1.0 mi ESE 5.8 mph - N/A   Overcast
9:41 PM 60.1 °F 59.0 °F 96% 29.97 in 1.5 mi East 4.6 mph - N/A   Overcast
9:55 PM 60.1 °F 59.0 °F 96% 29.96 in 1.2 mi Calm Calm - N/A   Overcast
10:52 PM 60.8 °F 59.0 °F 94% 29.97 in 0.8 mi East 4.6 mph - N/A   Mist
10:55 PM 60.1 °F 59.0 °F 96% 29.95 in 1.0 mi East 4.6 mph - N/A   Mist
11:12 PM 60.1 °F 59.0 °F 96% 29.97 in 0.8 mi East 5.8 mph - N/A   Mist
11:55 PM 61.0 °F 59.0 °F 93% 29.95 in 0.8 mi East 6.9 mph - N/A   Mist